This is the latest recevied weather packets stored in our database for station/object OK2JF-6. If no packets are shown the sender has not sent any weather packets the latest 10 day(s).
| Time | Temp. | Humidity | Pressure | Rain* | Wind** | Luminosity | Snow |
|---|---|---|---|---|---|---|---|
| 1777757943 | 8.89° C | 72% | 1091.7 hPa | 0 mm | - | 0 W/m² | - |
| 1777756503 | 9.44° C | 71% | 1091.7 hPa | 0 mm | - | 0 W/m² | - |
| 1777756443 | 9.44° C | 72% | 1091.7 hPa | 0 mm | - | 0 W/m² | - |
| 1777756263 | 9.44° C | 72% | 1091.7 hPa | 0 mm | - | 0 W/m² | - |
| 1777756203 | 9.44° C | 70% | 1091.8 hPa | 0 mm | - | 0 W/m² | - |
| 1777755677 | 9.44° C | 71% | 1091.7 hPa | 0 mm | - | 0 W/m² | - |
| 1777755663 | 9.44° C | 70% | 1091.7 hPa | 0 mm | - | 0 W/m² | - |
| 1777755437 | 9.44° C | 69% | 1091.6 hPa | 0 mm | - | 0 W/m² | - |
| 1777755063 | 9.44° C | 68% | 1091.8 hPa | 0 mm | - | 0 W/m² | - |
| 1777754943 | 9.44° C | 67% | 1091.8 hPa | 0 mm | - | 0 W/m² | - |
| 1777754763 | 9.44° C | 66% | 1091.9 hPa | 0 mm | - | 0 W/m² | - |
| 1777754584 | 9.44° C | 65% | 1091.7 hPa | 0 mm | - | 0 W/m² | - |
| 1777754223 | 10° C | 66% | 1091.8 hPa | 0 mm | - | 0 W/m² | - |
| 1777753803 | 10° C | 66% | 1091.8 hPa | 0 mm | - | 0 W/m² | - |
| 1777753743 | 10° C | 64% | 1091.8 hPa | 0 mm | - | 0 W/m² | - |
| 1777753323 | 10.56° C | 66% | 1091.9 hPa | 0 mm | - | 0 W/m² | - |
| 1777753143 | 10.56° C | 67% | 1091.9 hPa | 0 mm | - | 0 W/m² | - |
| 1777752783 | 10.56° C | 61% | 1091.7 hPa | 0 mm | - | 0 W/m² | - |
| 1777752437 | 10.56° C | 61% | 1091.9 hPa | 0 mm | - | 0 W/m² | - |
| 1777752123 | 11.11° C | 62% | 1092 hPa | 0 mm | - | 0 W/m² | - |
| 1777751943 | 11.11° C | 59% | 1092.1 hPa | 0 mm | - | 0 W/m² | - |
| 1777751583 | 11.11° C | 57% | 1091.9 hPa | 0 mm | - | 0 W/m² | - |
| 1777751043 | 11.67° C | 58% | 1092.2 hPa | 0 mm | - | 0 W/m² | - |
| 1777750923 | 11.67° C | 58% | 1091.9 hPa | 0 mm | - | 0 W/m² | - |
| 1777750518 | 12.22° C | 57% | 1092.2 hPa | 0 mm | - | 0 W/m² | - |
* Rain latest hour (hover to see other rain measurements)
** Current wind speed in m/s (hover to see current wind gust speed)